loading
DOY 175 | 2024-06-23T18:37:38Z

DELTA 1 R/B, 50

Orbit data source: Space-Track

DELTA 1 R/B, 50 is space debris in LEO originally from a launch on Fri, 12 Aug 1960 UTC launched from the Air Force Eastern Test Range (AFETR). Debris objects in space refer to the collection of defunct objects orbiting the Earth. Examples of debris include non-operational satellites, rocket bodies, and fragments generated from explosions, collisions, or faulty payload assembly.

Loading next visibility...
Loading greatness...
DELTA 1 R/B details
NORAD ID50
COSPAR ID
1960-009B
Orbit
LEO
Last TLE update1 day ago
Origin
Flag of USGSFC (US)
ManufacturerABL
BusAltair
MotorUnknown
Mass24 kg wet, 24 kg dry
Launch date (UTC)
1960-08-12 (64 years ago)
Launch vehicleUnknown
Launch site
Air Force Eastern Test Range (AFETR)
Object type
Payload
Rocket body
Debris
Radar Cross Section0.6 m², Medium (>0.1 m² and < 1m²)
Predictive object data (real-time)
Latitude21.55043°
Longitude132.93366°
Altitude1,503.736 km
Speed7.155 km/s
Apparent Right ascension17h 50m 59s
Apparent Declination-5° 33' 31"
Sunlit
Object is in full shadow
Predictive observer data (real-time)
Local Sidereal Time05:46:50
Azimuth358.171° N
Elevation-55.63°
Doppler factor1
Orbital elements
Apogee1,682.88 km
Perigee1,503.102 km
Semi-major axis7,971.128 km
Eccentricity0.0112768
Inclination47.2303°
RAAN250.7047°
Arg. of periapsis15.2111°
True anomaly344.86801°
Mean anomaly345.2026°
Mean motion3.04974 °/min
BSTAR0.00028847
Period118.04 mins
Definitive object data (Epoch: 2024-06-22T14:56:53.844Z)
Latitude-0.00007°
Longitude115.19676°
Altitude1,505.317 km
Speed7.152 km/s
True Right ascension16h 42m 49s
True Declination0° 00' 00"
Sunlit
Object was in full shadow at TLE epoch
TLE from 1 day ago
0 DELTA 1 R/B
1 00050U 60009B   24174.62284542 -.00000055  00000-0  28847-3 0  9994
2 00050  47.2303 250.7047 0112768  15.2111 345.2026 12.20141147849238
Epoch: 2024-06-22T14:56Z
No data available

DELTA 1 R/B Visibility forecast

Observer location: 39.9160978°, -105.1181434, 0m alt.

DELTA 1 R/B is not visible in the next 10 days
Span
Click to sort rows by Start time (UTC) header in descending order
Start Az.
Max El. time (UTC)
Max El. Az.
Max El.
End time (UTC)
End Az.